User: anonymous   Login
Location: Lawrence Hall of Science
(37.8785°N, 122.2415°W)
Time: 14:05:37
(UTC-08:00)
Language:

Cosmos 1461 - Orbit

View from above orbital plane
View from above orbital plane
View from above satellite
View from above satellite

Ground track
Ground track

The orbit data is extracted from the following two-line orbital elements,

1 14064U 83044A   17018.19629600  .00000192  00000-0  32227-4 0  9996
2 14064  65.0017  28.7886 0085213 107.8686 253.1746 14.93418786700950
Epoch (UTC): 18 January 2017 04:42:39
Eccentricity: 0.0085213
inclination: 65.0017°
perigee height: 528 km
apogee height: 646 km
right ascension of ascending node: 28.7886°
argument of perigee: 107.8686°
revolutions per day: 14.93418786
mean anomaly at epoch: 253.1746°
orbit number at epoch: 70095

The dashed part of the orbit path shows where the satellite is in the earth's shadow,  

DLR